Location: Bonaustraße
(48.4603°N, 11.9280°E)
Time: 06:46:35
(UTC+01:00)

X-37B - Pass Details

Date: 27 January 2021
Orbit: 383 x 391 km, 45.0° (Epoch: 27 February)

Event Time Altitude Azimuth Distance (km) Brightness Sun altitude
Rises 19:43:41 0° 271° (W) 2,275 5.8 -26.5°
Reaches altitude 10° 19:46:02 10° 255° (WSW) 1,419 4.3 -26.9°
Enters shadow 19:47:08 16° 239° (WSW) 1,109 3.5 -27.1°
